Погода в Скривери

Погода в Скривери : погода сейчас, прогноз погоды и архив. Всё, что Вы хотите узнать о погоде в Скривери!

Поиск расширенной информации на нашем сайте:

Другие новости

Новости СМИ2

Главная страница сайта

Новости сайта

03.07.2017

Напоминаем, что на нашем специализированном сайте Метеоцентр.Азия вы можете получить высокодетализированные автоматические прогнозы погоды по пунктам России, СНГ и мира в авиационном формате (включающие направление и скорость ветра, видимость, явления погоды, количество и форму облачности, нижнюю и верхнюю границу облачности).


Погода в Скривери - сегодня

Время (UTC), дата Ветер
(°,м/с) 
Видим.   Явления Облачность Т
(°С)
Тd
(°С)
f(%) Тe
(°С)
Pmin
(гПа)
dP
(гПа)
Po
(мм)
O2
(г/м3)
Тmin Tmax R s Состояние
почвы
18 06.02.18 170 (Ю) 4000 м  слаб. ливневой снег  10/10 270 м кучево-дожд. 
[Cb cap]
-6.7 -7.4 95 -8  1012.9  0.1  752  311    -5.9  0.7     
21 06.02.18 210 (ЮЗ) 4000 м  слаб. ливневой снег  10/10 240 м кучево-дожд. 
[Cb cap]
-4.8 -5.5 95 -7  1013.7  0.8  752  308           
00 07.02.18 220 (ЮЗ) 10 км  в посл. час ливневой снег  10/10 420 м 
[St]
-4.3 -5.2 93 -7  1015  1.3  753  309           
06 07.02.18 220 (ЮЗ) 4000 м  слаб. ливневой снег  10/10 400 м кучево-дожд. 
[Cb cap]
-4 -5.3 91 -6  1017.3  1.2  755  309  -6.7    0.9  равномерный
сухой снег
100% 
09 07.02.18 210 (ЮЗ) 4000 м  слаб. ливневой снег  10/10 420 м кучево-дожд. 
[Cb cap]
-3.7 -5.6 87 -7  1018.9  1.6  756  309           
12 07.02.18 210 (ЮЗ) 5{10}  20000 м  в посл. час ливневой снег  4/4 1000 м 
[Sc]
-2.7 -6.1 77 -6  1019.8  0.9  757  309           
15 07.02.18 210 (ЮЗ) 3{10}  20000 м  {ливн. осадки}  8/3 1000 м средняя 
[Sc|Ac trans]
-3.7 -7.7 74 -6  1021.2  1.4  758  310           
18 07.02.18 180 (Ю) 2{10}  20000 м  {ливн. осадки}  ясно 
-6.8 -8.7 86 -8  1022.3  759  314    -2.5  0.0     
21 07.02.18 150 (ЮВ) 20000 м    ясно 
-9.2 -11.9 81 -9  1023.1  0.7  759  317           
00 08.02.18 120 (ЮВ) 20000 м    ясно 
-11 -12.5 89 -13  1023.4  0.2  760  320           
03 08.02.18 090 (В) 20000 м    ясно 
-13.3 -14.4 91 -13  1023.3  -0.2  759  322           
06 08.02.18 120 (ЮВ) 4000 м  слаб. ливневой снег [диам. изморози 2 мм]  10/10 180 м кучево-дожд. 
[Cb cap]
-12.9 -14 91 -15  1023.3  759  321  -14.2    0.0  равномерный
сухой снег
100% 
09 08.02.18 тихо ()   1000 м  дымка{ливн. осадки} [диам. изморози 3 мм]  10/10 210 м 
[St]
-9.8 -10.6 94 -10  1022.9  -0.3  759  317           
12 08.02.18 160 (Ю) 4000 м  дымка{ливн. осадки} [диам. изморози 0 мм]  10/10 240 м 
[St]
-6.5 -7.1 95 -6  1022  -0.7  759  314           
15 08.02.18 тихо ()   4000 м  дымка  10/10 210 м 
[St]
-6 -6.6 95 -6  1021.6  -0.4  758  312           
18 08.02.18 070 (В) 10 км    10/10 210 м 
[St]
-5.9 -6.5 96 -6  1021.9  0.3  758  312    -5.8  0.0     
21 08.02.18 тихо ()   10 км    10/10 210 м 
[St]
-6 -6.6 95 -6  1022  0.1  758  312           
00 09.02.18 340 (С) 10 км    10/10 180 м 
[St]
-7.1 -7.7 95 -7  1022.2  0.2  759  315           
03 09.02.18 090 (В) 10 км    10/10 150 м 
[St]
-7.9 -8.5 95 -8  1022.3  759  315           
06 09.02.18 010 (С) 2000 м  дымка  10/10 150 м 
[St]
-8.4 -9.1 95 -10  1022.5  0.2  759  316  -8.4      равномерный
сухой снег
100% 
09 09.02.18 090 (В) 4000 м  дымка [диам. изморози 2 мм]  10/10 210 м 
[St]
-9.1 -9.9 94 -9  1023  0.5  759  317           
12 09.02.18 340 (С) 4000 м  дымка [диам. изморози 0 мм]  10/10 270 м 
[St]
-7.9 -8.8 93 -8  1022.7  -0.3  759  316           
15 09.02.18 320 (СЗ) 20000 м    ясно 
-8.9 -9.7 94 -9  1022.3  -0.4  759  316           
18 09.02.18 050 (СВ) 4000 м  дымка [диам. изморози 1 мм]  ясно 
-13.2 -14.3 91 -13  1022.8  0.3  759  322    -7.6       
09 22.02.18 090 (В) 20000 м  [диам. изморози 0 мм]  ясно 
-13 -15.2 84 -13  1032.1  0.5  766  325           
Время (UTC), дата Ветер
(°,м/с) 
Видим.   Явления Облачность Т
(°С)
Тd
(°С)
f(%) Тe
(°С)
Pmin
(гПа)
dP
(гПа)
Po
(мм)
O2
(г/м3)
Тmin Tmax R s Состояние
почвы

Для получения пояснительной информации подведите курсор к названию столбца.

ПОГОДА в Скривери - архив

Всё, что Вы хотите узнать о погоде в Скривери - удобно и подробно!

Выберите нужную дату (начиная с 1 января 2015* года) и нажмите кнопку "Найти".
Будут отображены архивные сводки погоды по пункту Скривери, начиная с указанной даты.


Отображать данные в формате CSV (для использования в таблицах Excel)


Внимание! Наш архив погоды предназначен исключительно для личного некоммерческого использования в познавательных целях. Если Вам необходимы официальные справки о состоянии погоды (для производственных, юридических, коммерческих и т.п. целей), обращайтесь в органы Росгидромета.

*Примечание: данная дата относится к архиву по метеостанциям СССР (Россия, СНГ, Балтия).
Архив по метеостанциям Зарубежной Европы и Азии (кроме Китая) хранится 10 дней, по другим регионам земного шара (Китай, Африка, Америка, Австралия, Океания) - 1 день.

Скривери - район местоположения метеостанции


Название, широта, долгота, высота метеостанции:
Скривери 56.6°ш. 25.1°д. 83 м над ур. моря [Латвия]

Дополнительная информация

В oтличие oт бoльшинства пoгoдных сайтoв мы публикуем пoдрoбную метеoинфoрмацию в детальнoм прoфессиoнальнoм фoрмате.

Характеристики температуры и влажнoсти вoздуха измеряются на высoте 2 м в тени вдали oт зданий и деревьев.
Скoрoсть ветра измеряется на высoте 10 м (на урoвне рoста челoвека скoрoсть ветра ниже в 1.5-2 раза). Если метеoстанция нахoдится в гoрoде или в лесу, тo скoрoсть ветра занижена на 2-4 м/с пo сравнению с oткрытым местoм. Скoрoсть ветра над акватoриями крупных рек и oзёр, а также на вершинах хoлмoв на 2-5 м/с выше, чем в oбычных услoвиях.
Атмoсфернoе давление в разных тoчках местнoсти мoжет значительнo oтличаться oт давления на метеoстанции, в зависимoсти oт услoвий рельефа (при пoдъёме на 10 м давление пoнижается примернo на 1 мм рт.ст.).